,,PA_Meas_PMT16A,,PR_Meas_QMR101_102,,RH_Meas_QMH101,,SR_Meas_QMS101,,TA_Meas_QMH101,,GenWind,,GenWind,
time,status,PA,status,PR,status,RH,status,SR,status,TA,status,DirAvg,status,SpdAvg,
2015-03-13, 07:15:04,VALID,919.201,VALID,0,VALID,98.3954,VALID,88.8538,VALID,19.3128,VALID,137,VALID,0,
2015-03-13, 07:16:04,VALID,919.165,VALID,0,VALID,98.4259,VALID,92.7217,VALID,19.3323,VALID,143,VALID,0,
2015-03-13, 07:17:04,VALID,919.206,VALID,0,VALID,98.4183,VALID,95.3003,VALID,19.3323,VALID,143,VALID,0,
2015-03-13, 07:18:04,VALID,919.196,VALID,0,VALID,98.4488,VALID,98.4161,VALID,19.3728,VALID,143,VALID,0,
2015-03-13, 07:19:04,VALID,919.196,VALID,0,VALID,98.3954,VALID,101.532,VALID,19.3713,VALID,140,VALID,0,
2015-03-13, 07:20:04,VALID,919.185,VALID,0,VALID,98.4259,VALID,104.755,VALID,19.4118,VALID,134,VALID,0,
2015-03-13, 07:21:04,VALID,919.173,VALID,0,VALID,98.3726,VALID,107.119,VALID,19.4493,VALID,140,VALID,0,
2015-03-13, 07:22:04,VALID,919.172,VALID,0,VALID,98.3573,VALID,109.912,VALID,19.4883,VALID,135,VALID,1.58867,
2015-03-13, 07:23:04,VALID,919.181,VALID,0,VALID,98.3116,VALID,109.16,VALID,19.5858,VALID,128,VALID,1.16797,
2015-03-13, 07:24:04,VALID,919.199,VALID,0,VALID,98.2582,VALID,112.169,VALID,19.6638,VALID,124,VALID,0.992578,
2015-03-13, 07:25:04,VALID,919.216,VALID,0,VALID,98.2277,VALID,118.078,VALID,19.7418,VALID,116,VALID,0.729297,
2015-03-13, 07:26:04,VALID,919.198,VALID,0,VALID,98.1896,VALID,121.301,VALID,19.8408,VALID,128,VALID,1.00898,
2015-03-13, 07:27:04,VALID,919.197,VALID,0,VALID,98.1362,VALID,124.739,VALID,19.8783,VALID,94,VALID,1.20469,
2015-03-13, 07:28:04,VALID,919.19,VALID,0,VALID,98.0066,VALID,128.07,VALID,19.9563,VALID,101,VALID,0.742969,
2015-03-13, 07:29:04,VALID,919.195,VALID,0,VALID,97.8847,VALID,130.541,VALID,20.0538,VALID,82,VALID,1.18164,
2015-03-13, 07:30:04,VALID,919.22,VALID,0,VALID,97.6941,VALID,133.442,VALID,20.1139,VALID,42,VALID,1.3168,
2015-03-13, 07:31:04,VALID,919.215,VALID,0,VALID,97.3968,VALID,135.161,VALID,20.1318,VALID,58,VALID,1.26523,
2015-03-13, 07:32:04,VALID,919.207,VALID,0,VALID,96.947,VALID,135.913,VALID,20.1513,VALID,64,VALID,1.36367,
2015-03-13, 07:33:04,VALID,919.241,VALID,0,VALID,96.3981,VALID,140.103,VALID,20.1513,VALID,77,VALID,1.28984,
2015-03-13, 07:34:04,VALID,919.246,VALID,0,VALID,95.7272,VALID,144.508,VALID,20.1318,VALID,61,VALID,1.85312,
2015-03-13, 07:35:04,VALID,919.247,VALID,0,VALID,95.2851,VALID,147.409,VALID,20.1513,VALID,60,VALID,1.55508,
2015-03-13, 07:36:04,VALID,919.259,VALID,0,VALID,95.1097,VALID,152.029,VALID,20.1708,VALID,62,VALID,1.32187,
2015-03-13, 07:37:04,VALID,919.29,VALID,0,VALID,94.9801,VALID,156.542,VALID,20.2293,VALID,63,VALID,1.22109,
2015-03-13, 07:38:04,VALID,919.314,VALID,0,VALID,94.9192,VALID,161.162,VALID,20.2879,VALID,88,VALID,0.792969,
2015-03-13, 07:39:04,VALID,919.364,VALID,0,VALID,94.8658,VALID,163.418,VALID,20.4049,VALID,123,VALID,0.683594,
2015-03-13, 07:40:04,VALID,919.381,VALID,0,VALID,94.8582,VALID,158.583,VALID,20.5609,VALID,137,VALID,0.562891,
2015-03-13, 07:41:04,VALID,919.38,VALID,0,VALID,93.8747,VALID,163.955,VALID,20.5999,VALID,148,VALID,1.89805,
2015-03-13, 07:42:04,VALID,919.39,VALID,0,VALID,92.472,VALID,171.154,VALID,20.6194,VALID,127,VALID,0.671484,
2015-03-13, 07:43:04,VALID,919.406,VALID,0,VALID,92.5102,VALID,179.642,VALID,20.717,VALID,120,VALID,0.494922,
2015-03-13, 07:44:04,VALID,919.422,VALID,0,VALID,91.4734,VALID,182.22,VALID,20.8145,VALID,67,VALID,0.528906,
2015-03-13, 07:45:04,VALID,919.444,VALID,0,VALID,91.1379,VALID,185.336,VALID,20.9316,VALID,126,VALID,0.235156,
2015-03-13, 07:46:04,VALID,919.45,VALID,0,VALID,89.2854,VALID,189.419,VALID,21.0291,VALID,112,VALID,1.68672,
2015-03-13, 07:47:04,VALID,919.467,VALID,0,VALID,89.1254,VALID,191.782,VALID,20.9901,VALID,147,VALID,0.859375,
2015-03-13, 07:48:04,VALID,919.453,VALID,0,VALID,88.9958,VALID,196.51,VALID,20.9316,VALID,121,VALID,1.0457,
2015-03-13, 07:49:04,VALID,919.492,VALID,0,VALID,89.8267,VALID,199.411,VALID,20.9316,VALID,121,VALID,0.146094,
2015-03-13, 07:50:04,VALID,919.481,VALID,0,VALID,90.1316,VALID,201.56,VALID,20.9527,VALID,130,VALID,0.567969,
2015-03-13, 07:51:04,VALID,919.519,VALID,0,VALID,89.415,VALID,200.915,VALID,20.873,VALID,144,VALID,1.53633,
2015-03-13, 07:52:04,VALID,919.505,VALID,0,VALID,89.4684,VALID,204.89,VALID,20.7755,VALID,121,VALID,2.56289,
2015-03-13, 07:53:04,VALID,919.489,VALID,0,VALID,90.3299,VALID,208.651,VALID,20.7365,VALID,127,VALID,1.35,
2015-03-13, 07:54:04,VALID,919.516,VALID,0,VALID,91.0388,VALID,216.064,VALID,20.717,VALID,104,VALID,0.373828,
2015-03-13, 07:55:04,VALID,919.522,VALID,0,VALID,91.6487,VALID,205.213,VALID,20.756,VALID,109,VALID,0.380469,
2015-03-13, 07:56:04,VALID,919.54,VALID,0,VALID,92.4797,VALID,221.973,VALID,20.8145,VALID,97,VALID,0.142578,
2015-03-13, 07:57:04,VALID,919.557,VALID,0,VALID,91.7097,VALID,225.841,VALID,20.9105,VALID,137,VALID,1.3168,
2015-03-13, 07:58:04,VALID,919.577,VALID,0,VALID,90.2079,VALID,226.271,VALID,20.9511,VALID,117,VALID,1.8625,
2015-03-13, 07:59:04,VALID,919.555,VALID,0,VALID,90.2155,VALID,231.536,VALID,20.9706,VALID,130,VALID,1.14688,
2015-03-13, 08:00:04,VALID,919.605,VALID,0,VALID,89.6971,VALID,235.618,VALID,21.0291,VALID,133,VALID,1.27969,
2015-03-13, 08:01:04,VALID,919.616,VALID,0,VALID,90.3832,VALID,236.156,VALID,21.1445,VALID,122,VALID,1.2043,
2015-03-13, 08:02:04,VALID,919.642,VALID,0,VALID,89.0339,VALID,240.991,VALID,21.1852,VALID,121,VALID,1.67969,
2015-03-13, 08:03:04,VALID,919.649,VALID,0,VALID,88.5917,VALID,241.85,VALID,21.086,VALID,130,VALID,2.11484,
2015-03-13, 08:04:04,VALID,919.635,VALID,0,VALID,88.9271,VALID,243.999,VALID,21.0665,VALID,120,VALID,1.88477,
2015-03-13, 08:05:04,VALID,919.617,VALID,0,VALID,88.607,VALID,247.867,VALID,21.1266,VALID,83,VALID,2.01406,
2015-03-13, 08:06:04,VALID,919.645,VALID,0,VALID,88.9729,VALID,251.09,VALID,21.2031,VALID,113,VALID,1.45859,
2015-03-13, 08:07:04,VALID,919.651,VALID,0,VALID,87.9513,VALID,255.173,VALID,21.2031,VALID,108,VALID,1.8543,
2015-03-13, 08:08:04,VALID,919.652,VALID,0,VALID,88.2105,VALID,257.429,VALID,21.2226,VALID,116,VALID,1.56992,
2015-03-13, 08:09:04,VALID,919.693,VALID,0,VALID,88.6146,VALID,261.619,VALID,21.3396,VALID,121,VALID,0.527734,
2015-03-13, 08:10:04,VALID,919.689,VALID,0,VALID,87.9285,VALID,265.272,VALID,21.4957,VALID,71,VALID,1.23281,
2015-03-13, 08:11:04,VALID,919.702,VALID,0,VALID,87.2424,VALID,270.537,VALID,21.6323,VALID,125,VALID,0.949609,
2015-03-13, 08:12:04,VALID,919.739,VALID,0,VALID,87.0137,VALID,272.148,VALID,21.7493,VALID,91,VALID,1.09102,
2015-03-13, 08:13:04,VALID,919.777,VALID,0,VALID,85.6872,VALID,275.801,VALID,21.8452,VALID,108,VALID,1.39727,
2015-03-13, 08:14:04,VALID,919.758,VALID,0,VALID,86.1446,VALID,279.454,VALID,21.9818,VALID,87,VALID,1.39688,
2015-03-13, 08:15:04,VALID,919.791,VALID,0,VALID,85.9235,VALID,283.107,VALID,22.0225,VALID,108,VALID,0.947656,
2015-03-13, 08:16:04,VALID,919.784,VALID,0,VALID,85.9388,VALID,289.232,VALID,22.0794,VALID,146,VALID,0.580078,
2015-03-13, 08:17:04,VALID,919.785,VALID,0,VALID,84.7419,VALID,292.347,VALID,22.255,VALID,149,VALID,0.726953,
2015-03-13, 08:18:04,VALID,919.807,VALID,0,VALID,83.6441,VALID,298.149,VALID,22.3737,VALID,161,VALID,1.28242,
2015-03-13, 08:19:04,VALID,919.828,VALID,0,VALID,82.2719,VALID,302.877,VALID,22.2745,VALID,169,VALID,1.45352,
2015-03-13, 08:20:04,VALID,919.826,VALID,0,VALID,83.7204,VALID,305.992,VALID,22.3135,VALID,171,VALID,0.84375,
2015-03-13, 08:21:04,VALID,919.81,VALID,0,VALID,83.2096,VALID,310.29,VALID,22.3916,VALID,152,VALID,0.9875,
2015-03-13, 08:22:04,VALID,919.815,VALID,0,VALID,82.8132,VALID,315.125,VALID,22.4696,VALID,174,VALID,0.290234,
2015-03-13, 08:23:04,VALID,919.833,VALID,0,VALID,82.6531,VALID,316.844,VALID,22.4874,VALID,167,VALID,0.00195313,
2015-03-13, 08:24:04,VALID,919.816,VALID,0,VALID,82.6836,VALID,319.315,VALID,22.4696,VALID,157,VALID,0,
2015-03-13, 08:25:04,VALID,919.777,VALID,0,VALID,82.188,VALID,324.795,VALID,22.5477,VALID,160,VALID,0.502734,
2015-03-13, 08:26:04,VALID,919.774,VALID,0,VALID,81.7611,VALID,329.415,VALID,22.5672,VALID,138,VALID,1.0207,
2015-03-13, 08:27:04,VALID,919.777,VALID,0,VALID,81.8298,VALID,333.927,VALID,22.5086,VALID,156,VALID,1.0668,
2015-03-13, 08:28:04,VALID,919.746,VALID,0,VALID,82.2033,VALID,337.795,VALID,22.5299,VALID,151,VALID,0.0105469,
2015-03-13, 08:29:04,VALID,919.76,VALID,0,VALID,83.8347,VALID,342.308,VALID,22.6079,VALID,135,VALID,0,
2015-03-13, 08:30:04,VALID,919.777,VALID,0,VALID,83.9796,VALID,345.853,VALID,22.7445,VALID,115,VALID,0.282031,
2015-03-13, 08:31:04,VALID,919.766,VALID,0,VALID,82.7522,VALID,348.647,VALID,22.8989,VALID,123,VALID,0.202734,
2015-03-13, 08:32:04,VALID,919.764,VALID,0,VALID,81.1284,VALID,352.192,VALID,22.8794,VALID,113,VALID,0.998047,
2015-03-13, 08:33:04,VALID,919.749,VALID,0,VALID,81.075,VALID,356.812,VALID,22.7818,VALID,109,VALID,0.691797,
2015-03-13, 08:34:04,VALID,919.768,VALID,0,VALID,81.2809,VALID,358.853,VALID,22.6843,VALID,137,VALID,0,
2015-03-13, 08:35:04,VALID,919.766,VALID,0,VALID,80.6481,VALID,360.143,VALID,22.6647,VALID,140,VALID,1.23906,
2015-03-13, 08:36:04,VALID,919.772,VALID,0,VALID,81.9365,VALID,366.697,VALID,22.6452,VALID,108,VALID,0.0105469,
2015-03-13, 08:37:04,VALID,919.779,VALID,0,VALID,82.3634,VALID,370.565,VALID,22.7818,VALID,140,VALID,0,
2015-03-13, 08:38:04,VALID,919.805,VALID,0,VALID,80.9073,VALID,374.755,VALID,22.8404,VALID,105,VALID,0.594531,
2015-03-13, 08:39:04,VALID,919.799,VALID,0,VALID,80.3203,VALID,376.474,VALID,22.8209,VALID,139,VALID,0.961719,
2015-03-13, 08:40:04,VALID,919.791,VALID,0,VALID,80.2441,VALID,383.135,VALID,22.8794,VALID,148,VALID,0,
2015-03-13, 08:41:04,VALID,919.834,VALID,0,VALID,80.8387,VALID,386.573,VALID,22.8794,VALID,136,VALID,0.676562,
2015-03-13, 08:42:04,VALID,919.79,VALID,0,VALID,80.7091,VALID,389.044,VALID,22.8191,VALID,141,VALID,0.289844,
2015-03-13, 08:43:04,VALID,919.794,VALID,0,VALID,79.6876,VALID,390.441,VALID,22.8404,VALID,125,VALID,0.0105469,
2015-03-13, 08:44:04,VALID,919.81,VALID,0,VALID,80.5185,VALID,392.697,VALID,22.977,VALID,62,VALID,0.0078125,
2015-03-13, 08:45:04,VALID,919.827,VALID,0,VALID,81.7459,VALID,394.524,VALID,23.1722,VALID,66,VALID,0,
2015-03-13, 08:46:04,VALID,919.806,VALID,0,VALID,79.7943,VALID,396.35,VALID,23.3869,VALID,110,VALID,0,
2015-03-13, 08:47:04,VALID,919.811,VALID,0,VALID,78.4297,VALID,400.326,VALID,23.5235,VALID,110,VALID,0,
2015-03-13, 08:48:04,VALID,919.824,VALID,0,VALID,77.0727,VALID,403.227,VALID,23.6584,VALID,110,VALID,0,
2015-03-13, 08:49:04,VALID,919.817,VALID,0,VALID,77.4082,VALID,409.136,VALID,23.795,VALID,164,VALID,0,
2015-03-13, 08:50:04,VALID,919.805,VALID,0,VALID,76.4247,VALID,413.756,VALID,23.8145,VALID,200,VALID,0.248437,
2015-03-13, 08:51:04,VALID,919.809,VALID,0,VALID,77.3472,VALID,417.731,VALID,23.9121,VALID,178,VALID,0,
2015-03-13, 08:52:04,VALID,919.795,VALID,0,VALID,75.8682,VALID,422.351,VALID,23.9512,VALID,178,VALID,0,
2015-03-13, 08:53:04,VALID,919.827,VALID,0,VALID,76.8745,VALID,425.574,VALID,24.0292,VALID,178,VALID,0,
2015-03-13, 08:54:04,VALID,919.809,VALID,0,VALID,77.0651,VALID,429.979,VALID,24.1073,VALID,144,VALID,0,
2015-03-13, 08:55:04,VALID,919.832,VALID,0,VALID,75.0449,VALID,433.203,VALID,24.2245,VALID,153,VALID,0,
2015-03-13, 08:56:04,VALID,919.865,VALID,0,VALID,72.552,VALID,436.319,VALID,24.2245,VALID,116,VALID,0,
2015-03-13, 08:57:04,VALID,919.868,VALID,0,VALID,74.5265,VALID,441.368,VALID,24.1269,VALID,113,VALID,0,
2015-03-13, 08:58:04,VALID,919.915,VALID,0,VALID,75.0144,VALID,445.666,VALID,24.0488,VALID,122,VALID,0,
2015-03-13, 08:59:04,VALID,919.95,VALID,0,VALID,75.3194,VALID,450.501,VALID,24.1073,VALID,156,VALID,0,
2015-03-13, 09:00:04,VALID,919.926,VALID,0,VALID,74.6637,VALID,454.261,VALID,24.1854,VALID,138,VALID,0,
2015-03-13, 09:01:04,VALID,919.95,VALID,0,VALID,74.9153,VALID,456.947,VALID,24.244,VALID,172,VALID,0,
2015-03-13, 09:02:04,VALID,919.958,VALID,0,VALID,74.2902,VALID,460.493,VALID,24.3007,VALID,202,VALID,0,
2015-03-13, 09:03:04,VALID,919.972,VALID,0,VALID,75.0678,VALID,464.683,VALID,24.3398,VALID,174,VALID,0,
2015-03-13, 09:04:04,VALID,919.984,VALID,0,VALID,74.1225,VALID,466.832,VALID,24.5778,VALID,77,VALID,0,
2015-03-13, 09:05:04,VALID,919.997,VALID,0,VALID,73.8633,VALID,471.344,VALID,24.7907,VALID,79,VALID,0.000390625,
2015-03-13, 09:06:04,VALID,920.014,VALID,0,VALID,69.7848,VALID,470.7,VALID,24.773,VALID,147,VALID,0.671484,
2015-03-13, 09:07:04,VALID,919.991,VALID,0,VALID,71.3018,VALID,473.171,VALID,24.5564,VALID,164,VALID,0.0195313,
2015-03-13, 09:08:04,VALID,919.993,VALID,0,VALID,71.1875,VALID,479.295,VALID,24.5935,VALID,169,VALID,0,
2015-03-13, 09:09:04,VALID,919.992,VALID,0,VALID,71.2713,VALID,481.659,VALID,24.6735,VALID,169,VALID,0,
2015-03-13, 09:10:04,VALID,920.02,VALID,0,VALID,71.3323,VALID,487.568,VALID,24.654,VALID,141,VALID,0.00273437,
2015-03-13, 09:11:04,VALID,920.01,VALID,0,VALID,71.2256,VALID,491.866,VALID,24.7711,VALID,198,VALID,0,
2015-03-13, 09:12:04,VALID,920.034,VALID,0,VALID,70.3946,VALID,492.295,VALID,24.8883,VALID,174,VALID,0.108203,
2015-03-13, 09:13:04,VALID,920.028,VALID,0,VALID,70.8901,VALID,500.031,VALID,24.8669,VALID,147,VALID,0.338672,
2015-03-13, 09:14:04,VALID,920.038,VALID,0,VALID,69.7619,VALID,504.973,VALID,24.9292,VALID,171,VALID,0.320703,
2015-03-13, 09:15:04,VALID,920.02,VALID,0,VALID,70.2727,VALID,513.246,VALID,24.8864,VALID,138,VALID,0.229297,
2015-03-13, 09:16:04,VALID,919.998,VALID,0,VALID,69.6247,VALID,522.486,VALID,24.8492,VALID,140,VALID,0.400391,
2015-03-13, 09:17:04,VALID,919.982,VALID,0,VALID,70.0135,VALID,526.354,VALID,24.7711,VALID,132,VALID,2.05781,
2015-03-13, 09:18:04,VALID,919.999,VALID,0,VALID,71.4238,VALID,529.148,VALID,24.6149,VALID,160,VALID,0.0417969,
2015-03-13, 09:19:04,VALID,920.038,VALID,0,VALID,70.8292,VALID,535.164,VALID,24.5759,VALID,133,VALID,0.541406,
2015-03-13, 09:20:04,VALID,920.033,VALID,0,VALID,72.8341,VALID,550.958,VALID,24.6131,VALID,112,VALID,0.229297,
2015-03-13, 09:21:04,VALID,920.035,VALID,0,VALID,70.1278,VALID,564.281,VALID,24.8102,VALID,194,VALID,0.241016,
2015-03-13, 09:22:04,VALID,920.072,VALID,0,VALID,70.2803,VALID,585.554,VALID,24.9255,VALID,201,VALID,0,
2015-03-13, 09:23:04,VALID,920.1,VALID,0,VALID,71.6144,VALID,593.827,VALID,25.0817,VALID,164,VALID,0,
2015-03-13, 09:24:04,VALID,920.099,VALID,0,VALID,67.9094,VALID,591.034,VALID,25.0231,VALID,137,VALID,0.439063,
2015-03-13, 09:25:04,VALID,920.099,VALID,0,VALID,70.1278,VALID,579,VALID,24.9469,VALID,109,VALID,0.314063,
2015-03-13, 09:26:04,VALID,920.07,VALID,0,VALID,69.7848,VALID,555.686,VALID,24.8278,VALID,132,VALID,0.445703,
2015-03-13, 09:27:04,VALID,920.063,VALID,0,VALID,70.8901,VALID,546.661,VALID,24.6326,VALID,121,VALID,0.161328,
2015-03-13, 09:28:04,VALID,920.056,VALID,0,VALID,70.7758,VALID,547.52,VALID,24.5155,VALID,164,VALID,0.115625,
2015-03-13, 09:29:04,VALID,920.017,VALID,0,VALID,72.8189,VALID,553.752,VALID,24.6131,VALID,117,VALID,0.989844,
2015-03-13, 09:30:04,VALID,920.046,VALID,0,VALID,72.6207,VALID,562.454,VALID,24.7126,VALID,133,VALID,1.82539,
2015-03-13, 09:31:04,VALID,920.061,VALID,0,VALID,72.0794,VALID,565.893,VALID,24.7126,VALID,168,VALID,1.76836,
2015-03-13, 09:32:04,VALID,920.048,VALID,0,VALID,70.6919,VALID,566.215,VALID,24.7321,VALID,190,VALID,1.03555,
2015-03-13, 09:33:04,VALID,920.086,VALID,0,VALID,72.2624,VALID,564.711,VALID,24.8297,VALID,137,VALID,1.80273,
2015-03-13, 09:34:04,VALID,920.085,VALID,0,VALID,69.7238,VALID,569.223,VALID,24.8492,VALID,180,VALID,1.87383,
2015-03-13, 09:35:04,VALID,920.099,VALID,0,VALID,69.1139,VALID,574.058,VALID,24.8883,VALID,146,VALID,1.04844,
2015-03-13, 09:36:04,VALID,920.101,VALID,0,VALID,69.922,VALID,578.785,VALID,25.0836,VALID,62,VALID,0.321094,
2015-03-13, 09:37:04,VALID,920.122,VALID,0,VALID,68.9919,VALID,581.794,VALID,25.316,VALID,81,VALID,0,
2015-03-13, 09:38:04,VALID,920.168,VALID,0,VALID,70.5623,VALID,579.215,VALID,25.357,VALID,137,VALID,0.664844,
2015-03-13, 09:39:04,VALID,920.191,VALID,0,VALID,69.3121,VALID,581.901,VALID,25.5523,VALID,135,VALID,0,
2015-03-13, 09:40:04,VALID,920.206,VALID,0,VALID,68.8394,VALID,586.306,VALID,25.648,VALID,150,VALID,1.27852,
2015-03-13, 09:41:04,VALID,920.195,VALID,0,VALID,66.6058,VALID,589.1,VALID,25.6304,VALID,205,VALID,0.362109,
2015-03-13, 09:42:04,VALID,920.222,VALID,0,VALID,67.6578,VALID,593.505,VALID,25.5894,VALID,135,VALID,0,
2015-03-13, 09:43:04,VALID,920.212,VALID,0,VALID,69.3426,VALID,594.794,VALID,25.5503,VALID,144,VALID,0.478125,
2015-03-13, 09:44:04,VALID,920.221,VALID,0,VALID,66.5067,VALID,596.836,VALID,25.5523,VALID,60,VALID,2.05352,
2015-03-13, 09:45:04,VALID,920.182,VALID,0,VALID,65.9654,VALID,598.34,VALID,25.4937,VALID,79,VALID,1.38359,
2015-03-13, 09:46:04,VALID,920.204,VALID,0,VALID,67.856,VALID,599.737,VALID,25.3941,VALID,114,VALID,1.13437,
2015-03-13, 09:47:04,VALID,920.2,VALID,0,VALID,69.5789,VALID,603.497,VALID,25.4331,VALID,143,VALID,0,
2015-03-13, 09:48:04,VALID,920.188,VALID,0,VALID,67.5206,VALID,611.125,VALID,25.648,VALID,144,VALID,0,
2015-03-13, 09:49:04,VALID,920.223,VALID,0,VALID,67.5892,VALID,615.101,VALID,25.8433,VALID,185,VALID,0,
2015-03-13, 09:50:04,VALID,920.24,VALID,0,VALID,67.2462,VALID,616.175,VALID,26.0581,VALID,182,VALID,0,
2015-03-13, 09:51:04,VALID,920.216,VALID,0,VALID,67.8408,VALID,617.464,VALID,26.2339,VALID,114,VALID,0.116016,
2015-03-13, 09:52:04,VALID,920.242,VALID,0,VALID,67.0479,VALID,620.15,VALID,26.3706,VALID,196,VALID,0,
2015-03-13, 09:53:04,VALID,920.244,VALID,0,VALID,62.4205,VALID,625.737,VALID,26.4097,VALID,177,VALID,0.857813,
2015-03-13, 09:54:04,VALID,920.258,VALID,0,VALID,64.4789,VALID,625.307,VALID,26.31,VALID,197,VALID,0.0449219,
2015-03-13, 09:55:04,VALID,920.242,VALID,0,VALID,66.1103,VALID,627.671,VALID,26.3316,VALID,147,VALID,0.101953,
2015-03-13, 09:56:04,VALID,920.223,VALID,0,VALID,65.3403,VALID,639.812,VALID,26.0972,VALID,148,VALID,0.940234,
2015-03-13, 09:57:04,VALID,920.226,VALID,0,VALID,66.156,VALID,643.465,VALID,25.8608,VALID,182,VALID,1.1082,
2015-03-13, 09:58:04,VALID,920.244,VALID,0,VALID,66.5677,VALID,648.085,VALID,25.7456,VALID,145,VALID,1.59453,
2015-03-13, 09:59:04,VALID,920.24,VALID,0,VALID,68.2448,VALID,651.845,VALID,25.6284,VALID,138,VALID,1.03164,
2015-03-13, 10:00:04,VALID,920.211,VALID,0,VALID,66.4457,VALID,654.209,VALID,25.4331,VALID,161,VALID,1.1543,
2015-03-13, 10:01:04,VALID,920.239,VALID,0,VALID,67.3529,VALID,660.548,VALID,25.4703,VALID,116,VALID,0.202344,
2015-03-13, 10:02:04,VALID,920.211,VALID,0,VALID,65.8358,VALID,647.333,VALID,25.4703,VALID,146,VALID,0.251953,
2015-03-13, 10:03:04,VALID,920.198,VALID,0,VALID,68.1762,VALID,654.102,VALID,25.6675,VALID,103,VALID,0,
2015-03-13, 10:04:04,VALID,920.186,VALID,0,VALID,68.6717,VALID,654.746,VALID,26.0366,VALID,77,VALID,0.0921875,
2015-03-13, 10:05:04,VALID,920.2,VALID,0,VALID,66.6058,VALID,656.465,VALID,26.1538,VALID,90,VALID,0.903125,
2015-03-13, 10:06:04,VALID,920.144,VALID,0,VALID,65.2717,VALID,655.606,VALID,26.0757,VALID,149,VALID,0,
2015-03-13, 10:07:04,VALID,920.153,VALID,0,VALID,64.4331,VALID,666.243,VALID,26.2339,VALID,188,VALID,0.173828,
2015-03-13, 10:08:04,VALID,920.142,VALID,0,VALID,65.3403,VALID,670.54,VALID,26.271,VALID,224,VALID,0.0148437,
2015-03-13, 10:09:04,VALID,920.16,VALID,0,VALID,65.1878,VALID,675.053,VALID,26.3491,VALID,160,VALID,0,
2015-03-13, 10:10:04,VALID,920.155,VALID,0,VALID,65.4394,VALID,681.177,VALID,26.5249,VALID,168,VALID,0,
2015-03-13, 10:11:04,VALID,920.163,VALID,0,VALID,64.7762,VALID,685.904,VALID,26.7984,VALID,165,VALID,0,
2015-03-13, 10:12:04,VALID,920.127,VALID,0,VALID,64.6237,VALID,691.706,VALID,27.0132,VALID,177,VALID,0.2125,
2015-03-13, 10:13:04,VALID,920.156,VALID,0,VALID,64.5627,VALID,709.112,VALID,27.2477,VALID,127,VALID,0,
2015-03-13, 10:14:04,VALID,920.155,VALID,0,VALID,63.2896,VALID,711.905,VALID,27.4647,VALID,106,VALID,0.187109,
2015-03-13, 10:15:04,VALID,920.145,VALID,0,VALID,62.4663,VALID,703.954,VALID,27.2693,VALID,101,VALID,0,
2015-03-13, 10:16:04,VALID,920.126,VALID,0,VALID,63.7927,VALID,714.699,VALID,27.1695,VALID,48,VALID,0.253516,
2015-03-13, 10:17:04,VALID,920.101,VALID,0,VALID,60.4079,VALID,717.062,VALID,27.3258,VALID,45,VALID,0.0417969,
2015-03-13, 10:18:04,VALID,920.089,VALID,0,VALID,59.7371,VALID,720.608,VALID,27.3844,VALID,52,VALID,2.13516,
2015-03-13, 10:19:04,VALID,920.108,VALID,0,VALID,59.9658,VALID,730.17,VALID,27.2086,VALID,52,VALID,0,
2015-03-13, 10:20:04,VALID,920.092,VALID,0,VALID,60.9949,VALID,735.542,VALID,27.1305,VALID,104,VALID,0.713281,
2015-03-13, 10:21:04,VALID,920.103,VALID,0,VALID,63.5717,VALID,742.311,VALID,27.1305,VALID,24,VALID,1.48945,
2015-03-13, 10:22:04,VALID,920.079,VALID,0,VALID,59.0967,VALID,744.89,VALID,26.9546,VALID,35,VALID,3.6168,
2015-03-13, 10:23:04,VALID,920.121,VALID,0,VALID,61.0331,VALID,746.179,VALID,26.5835,VALID,42,VALID,3.04453,
2015-03-13, 10:24:04,VALID,920.123,VALID,0,VALID,60.1183,VALID,750.154,VALID,26.4663,VALID,59,VALID,0,
2015-03-13, 10:25:04,VALID,920.105,VALID,0,VALID,61.7649,VALID,755.956,VALID,26.3686,VALID,63,VALID,2.48398,
2015-03-13, 10:26:04,VALID,920.075,VALID,0,VALID,61.0254,VALID,760.683,VALID,26.1733,VALID,67,VALID,1.18008,
2015-03-13, 10:27:04,VALID,920.081,VALID,0,VALID,60.3622,VALID,765.626,VALID,26.0561,VALID,46,VALID,3.11836,
2015-03-13, 10:28:04,VALID,920.061,VALID,0,VALID,59.4779,VALID,772.609,VALID,25.9975,VALID,39,VALID,1.70391,
2015-03-13, 10:29:04,VALID,920.047,VALID,0,VALID,59.5999,VALID,773.899,VALID,25.978,VALID,33,VALID,1.64102,
2015-03-13, 10:30:04,VALID,919.991,VALID,0,VALID,59.8667,VALID,778.089,VALID,26.1928,VALID,5,VALID,0.00195313,
2015-03-13, 10:31:04,VALID,919.997,VALID,0,VALID,60.6976,VALID,785.932,VALID,26.3296,VALID,32,VALID,0.125391,
2015-03-13, 10:32:04,VALID,919.998,VALID,0,VALID,58.1438,VALID,794.527,VALID,26.4858,VALID,58,VALID,1.5043,
2015-03-13, 10:33:04,VALID,919.964,VALID,0,VALID,58.1972,VALID,803.338,VALID,26.6421,VALID,82,VALID,2.04297,
2015-03-13, 10:34:04,VALID,919.985,VALID,0,VALID,59.4779,VALID,809.247,VALID,26.5229,VALID,37,VALID,1.44297,
2015-03-13, 10:35:04,VALID,919.951,VALID,0,VALID,59.1577,VALID,813.652,VALID,26.7573,VALID,44,VALID,2.08086,
2015-03-13, 10:36:04,VALID,919.975,VALID,0,VALID,57.2519,VALID,815.478,VALID,26.8549,VALID,33,VALID,1.09609,
2015-03-13, 10:37:04,VALID,919.965,VALID,0,VALID,56.8173,VALID,815.478,VALID,26.7984,VALID,29,VALID,0.0164062,
2015-03-13, 10:38:04,VALID,919.963,VALID,0,VALID,57.3433,VALID,816.768,VALID,26.7963,VALID,17,VALID,0,
2015-03-13, 10:39:04,VALID,919.928,VALID,0,VALID,56.4438,VALID,822.355,VALID,26.9937,VALID,17,VALID,0,
2015-03-13, 10:40:04,VALID,919.907,VALID,0,VALID,56.2684,VALID,822.892,VALID,27.0719,VALID,17,VALID,0,
2015-03-13, 10:41:04,VALID,919.889,VALID,0,VALID,56.703,VALID,823.214,VALID,27.3238,VALID,22,VALID,0,
2015-03-13, 10:42:04,VALID,919.876,VALID,0,VALID,59.4855,VALID,820.098,VALID,27.3063,VALID,17,VALID,1.97031,
2015-03-13, 10:43:04,VALID,919.839,VALID,0,VALID,59.76,VALID,820.098,VALID,27.1891,VALID,36,VALID,0.219531,
2015-03-13, 10:44:04,VALID,919.863,VALID,0,VALID,59.4169,VALID,818.487,VALID,27.3433,VALID,11,VALID,0.307813,
2015-03-13, 10:45:04,VALID,919.846,VALID,0,VALID,58.0294,VALID,819.776,VALID,27.4996,VALID,349,VALID,0.0949219,
2015-03-13, 10:46:04,VALID,919.84,VALID,0,VALID,59.4931,VALID,829.016,VALID,27.3238,VALID,275,VALID,0,
2015-03-13, 10:47:04,VALID,919.819,VALID,0,VALID,60.568,VALID,634.01,VALID,27.3238,VALID,275,VALID,0,
2015-03-13, 10:48:04,VALID,919.84,VALID,0,VALID,61.1093,VALID,218.535,VALID,27.5408,VALID,284,VALID,0,
2015-03-13, 10:49:04,VALID,919.792,VALID,0,VALID,60.3317,VALID,216.494,VALID,27.5212,VALID,56,VALID,0.387109,
2015-03-13, 10:50:04,VALID,919.808,VALID,0,VALID,59.1043,VALID,215.742,VALID,27.3433,VALID,359,VALID,0.991406,
2015-03-13, 10:51:04,VALID,919.788,VALID,0,VALID,56.1007,VALID,209.403,VALID,27.1849,VALID,349,VALID,0,
2015-03-13, 10:52:04,VALID,919.785,VALID,0,VALID,58.3496,VALID,210.692,VALID,27.0893,VALID,23,VALID,0,